Hourly Data Report for October 03, 2013

All times are specified in Local Standard Time (LST). Add 1 hour to adjust for Daylight Saving Time where and when it is observed.

OTTAWA INTL A
ONTARIO

45°19'00.000" N
75°40'00.000" W
114.90 m
6106001
71628
YOW

Download Data

Hourly Data (October 2013)
Hourly Data Report for October 3, 2013
Temp Definition
°C
Dew Point Temp Definition
°C
Rel Hum Definition
%
Wind Dir Definition
10's deg

Wind Spd Definition
km/h
Visibility Definition
km
Stn Press Definition
kPa
Hmdx Definition


Wind Chill Definition


Weather Definition


TIME
00:00 Legend Double Dagger 11.4 5.3 66 26 11 24.1 100.26     LegendNANA
01:00 Legend Double Dagger 11.0 5.2 67 28 9 24.1 100.27     Clear
02:00 Legend Double Dagger 11.9 6.6 70 29 12 24.1 100.29     LegendNANA
03:00 Legend Double Dagger 10.6 6.8 77 29 11 24.1 100.32     LegendNANA
04:00 Legend Double Dagger 9.4 6.0 79 23 9 24.1 100.36     Clear
05:00 Legend Double Dagger 9.2 5.8 79 23 8 24.1 100.41     LegendNANA
06:00 Legend Double Dagger 8.1 6.2 88 26 8 24.1 100.48     LegendNANA
07:00 Legend Double Dagger 9.0 7.3 89 19 6 24.1 100.52     Mostly Cloudy
08:00 Legend Double Dagger 12.1 8.6 79 27 6 24.1 100.61     LegendNANA
09:00 Legend Double Dagger 16.0 8.1 59 26 6 24.1 100.65     LegendNANA
10:00 Legend Double Dagger 18.2 8.3 52 13 7 24.1 100.64     Mainly Clear
11:00 Legend Double Dagger 19.6 7.8 46 12 11 24.1 100.54     LegendNANA
12:00 Legend Double Dagger 20.1 7.3 43 11 4 24.1 100.50     LegendNANA
13:00 Legend Double Dagger 20.9 7.3 41 21 10 24.1 100.43     Mainly Clear
14:00 Legend Double Dagger 21.4 7.0 39 16 4 24.1 100.39     LegendNANA
15:00 Legend Double Dagger 21.6 8.0 41 14 8 24.1 100.35     LegendNANA
16:00 Legend Double Dagger 21.6 8.7 43 25 9 24.1 100.33     Mainly Clear
17:00 Legend Double Dagger 19.9 8.1 46 24 6 24.1 100.36     LegendNANA
18:00 Legend Double Dagger 15.7 7.0 56 23 5 24.1 100.39     LegendNANA
19:00 Legend Double Dagger 14.5 7.1 61 21 3 24.1 100.39     Mainly Clear
20:00 Legend Double Dagger 15.2 7.3 59 29 2 24.1 100.42     LegendNANA
21:00 Legend Double Dagger 15.1 8.2 63 19 8 24.1 100.43     LegendNANA
22:00 Legend Double Dagger 15.1 8.6 65 20 9 24.1 100.44     Mostly Cloudy
23:00 Legend Double Dagger 14.6 9.0 69 21 7 24.1 100.42     LegendNANA

Notes on Data Quality.

Legend

  • E = Estimated
  • M = Missing
  • NA = Not Available
  • ‡ = Partner data that is not subject to review by the National Climate Archives
Date modified: